QPF
0.01 0.01 0.02 0.02 0.03 0.03 0.03 0.03 0.03 0.03 0.03 0.04 0.04 0.04 0.03 0.03 0.05 0.06 0.07 0.05 0.06 0.06 0.06 0.05 0.04 0.06 0.09 0.10 0.10 0.08 0.07 0.07 0.08 0.10 0.12 0.12 0.15 0.13 0.10 0.10 0.07 0.06 0.05
0.01 0.01 0.02 0.01 0.02 0.02 0.02 0.02 0.02 0.02 0.02 0.02 0.03 0.03 0.04 0.05 0.06 0.07 0.05 0.05 0.06 0.05 0.05 0.05 0.06 0.06 0.05 0.05 0.05 0.04 0.04 0.05 0.06 0.07 0.07 0.08 0.08 0.09 0.09 0.10 0.09 0.09 0.09
0.01 0.01 0.01 0.01 0.02 0.02 0.02 0.02 0.02 0.01 0.02 0.02 0.03 0.04 0.04 0.04 0.05 0.04 0.04 0.04 0.05 0.06 0.06 0.04 0.04 0.05 0.05 0.05 0.04 0.03 0.03 0.04 0.04 0.04 0.03 0.03 0.05 0.05 0.06 0.08 0.11 0.12 0.11
0.00 0.01 0.01 0.02 0.02 0.03 0.03 0.02 0.02 0.02 0.02 0.02 0.04 0.04 0.04 0.05 0.04 0.03 0.03 0.04 0.05 0.06 0.05 0.03 0.01 0.02 0.02 0.01 0.02 0.03 0.04 0.04 0.03 0.03 0.03 0.04 0.05 0.06 0.07 0.08 0.09 0.09 0.09
0.00 0.01 0.01 0.01 0.03 0.03 0.03 0.03 0.04 0.03 0.02 0.02 0.02 0.02 0.03 0.04 0.04 0.03 0.02 0.02 0.03 0.04 0.04 0.03 0.02 0.03 0.04 0.04 0.03 0.02 0.03 0.04 0.03 0.03 0.04 0.06 0.07 0.07 0.07 0.08 0.08 0.08 0.07
0.00 0.01 0.01 0.02 0.03 0.03 0.04 0.05 0.04 0.03 0.02 0.02 0.02 0.02 0.02 0.03 0.04 0.03 0.02 0.02 0.03 0.03 0.03 0.03 0.02 0.02 0.03 0.04 0.04 0.04 0.03 0.04 0.04 0.04 0.03 0.03 0.04 0.05 0.05 0.06 0.05 0.05 0.06
0.01 0.01 0.02 0.03 0.03 0.04 0.05 0.05 0.05 0.04 0.03 0.02 0.01 0.01 0.01 0.01 0.02 0.03 0.05 0.06 0.06 0.06 0.05 0.02 0.01 0.01 0.01 0.02 0.03 0.04 0.04 0.03 0.03 0.03 0.03 0.03 0.02 0.03 0.03 0.03 0.04 0.04 0.04
0.02 0.02 0.02 0.03 0.04 0.04 0.04 0.04 0.03 0.02 0.01 0.01 0.01 0.01 0.00 0.00 0.01 0.02 0.06 0.07 0.05 0.03 0.02 0.01 0.00 0.00 0.00 0.01 0.02 0.03 0.02 0.02 0.01 0.01 0.01 0.02 0.02 0.02 0.02 0.01 0.01 0.01 0.01
0.03 0.03 0.03 0.03 0.03 0.03 0.03 0.03 0.03 0.02 0.02 0.02 0.03 0.01 0.00 0.00 0.01 0.01 0.02 0.01 0.01 0.00 0.00 0.00 0.01 0.00 0.01 0.02 0.02 0.02 0.01 0.01 0.01 0.01 0.01 0.01 0.02 0.02 0.01 0.00 0.00 0.01 0.01
0.02 0.02 0.02 0.02 0.02 0.02 0.02 0.03 0.03 0.03 0.03 0.04 0.03 0.01 0.00 0.00 0.01 0.00 0.00 0.00 0.00 0.00 0.00 0.00 0.00 0.00 0.01 0.01 0.02 0.01 0.01 0.01 0.01 0.01 0.01 0.01 0.01 0.01 0.01 0.00 0.01 0.01 0.01
0.02 0.02 0.02 0.02 0.01 0.01 0.01 0.02 0.02 0.02 0.03 0.04 0.02 0.01 0.00 0.00 0.00 0.00 0.00 0.00 0.00 0.00 0.00 0.00 0.00 0.00 0.00 0.01 0.01 0.01 0.01 0.01 0.01 0.01 0.01 0.01 0.01 0.01 0.01 0.01 0.01 0.01 0.01
0.03 0.02 0.01 0.02 0.01 0.01 0.02 0.02 0.02 0.02 0.04 0.03 0.01 0.00 0.00 0.00 0.00 0.00 0.00 0.00 0.00 0.00 0.00 0.01 0.01 0.01 0.01 0.01 0.01 0.02 0.03 0.02 0.02 0.02 0.01 0.01 0.01 0.01 0.01 0.01 0.00 0.00 0.00
0.02 0.01 0.01 0.02 0.01 0.01 0.02 0.02 0.02 0.03 0.03 0.02 0.02 0.01 0.01 0.01 0.01 0.00 0.00 0.00 0.00 0.00 0.01 0.02 0.03 0.04 0.03 0.02 0.03 0.03 0.03 0.03 0.02 0.01 0.01 0.01 0.01 0.01 0.01 0.01 0.01 0.01 0.01
0.01 0.01 0.01 0.01 0.01 0.01 0.01 0.01 0.02 0.03 0.03 0.03 0.03 0.02 0.01 0.01 0.01 0.01 0.01 0.01 0.00 0.00 0.01 0.01 0.02 0.04 0.04 0.03 0.03 0.02 0.02 0.02 0.02 0.01 0.01 0.01 0.00 0.01 0.01 0.01 0.01 0.01 0.00
0.01 0.02 0.01 0.01 0.01 0.01 0.01 0.02 0.02 0.03 0.03 0.03 0.03 0.02 0.02 0.01 0.01 0.01 0.01 0.01 0.01 0.00 0.00 0.00 0.00 0.01 0.02 0.02 0.02 0.02 0.01 0.01 0.01 0.00 0.00 0.00 0.01 0.00 0.01 0.01 0.01 0.01 0.00
0.01 0.02 0.02 0.02 0.02 0.02 0.02 0.03 0.03 0.03 0.03 0.03 0.03 0.02 0.02 0.02 0.02 0.02 0.02 0.01 0.01 0.00 0.00 0.00 0.00 0.00 0.00 0.00 0.00 0.00 0.00 0.00 0.01 0.00 0.00 0.00 0.00 0.01 0.00 0.01 0.01 0.01 0.00
0.02 0.02 0.02 0.02 0.02 0.03 0.03 0.03 0.04 0.03 0.03 0.03 0.03 0.03 0.02 0.02 0.03 0.03 0.02 0.01 0.01 0.01 0.01 0.01 0.01 0.01 0.00 0.00 0.00 0.00 0.01 0.01 0.00 0.00 0.00 0.00 0.00 0.01 0.01 0.01 0.01 0.01 0.01
0.02 0.02 0.02 0.02 0.03 0.03 0.04 0.04 0.05 0.05 0.04 0.04 0.03 0.03 0.03 0.02 0.02 0.02 0.03 0.02 0.02 0.01 0.01 0.01 0.01 0.00 0.00 0.00 0.00 0.00 0.00 0.00 0.01 0.01 0.01 0.01 0.01 0.01 0.01 0.01 0.01 0.01 0.01
0.02 0.02 0.02 0.02 0.03 0.03 0.04 0.05 0.05 0.07 0.08 0.07 0.05 0.04 0.03 0.03 0.02 0.02 0.02 0.01 0.01 0.01 0.01 0.01 0.00 0.00 0.00 0.00 0.00 0.00 0.00 0.00 0.00 0.00 0.01 0.01 0.01 0.01 0.01 0.01 0.01 0.01 0.01
0.04 0.04 0.04 0.04 0.04 0.03 0.03 0.05 0.05 0.05 0.05 0.03 0.03 0.03 0.02 0.01 0.01 0.01 0.01 0.01 0.01 0.01 0.00 0.00 0.00 0.00 0.00 0.00 0.00 0.00 0.00 0.00 0.00 0.00 0.00 0.01 0.01 0.01 0.01 0.01 0.01 0.01 0.02
0.07 0.06 0.06 0.06 0.05 0.04 0.04 0.04 0.04 0.05 0.04 0.04 0.02 0.02 0.01 0.01 0.01 0.01 0.00 0.00 0.00 0.00 0.00 0.00 0.00 0.00 0.00 0.00 0.00 0.00 0.00 0.00 0.00 0.00 0.00 0.00 0.00 0.00 0.00 0.01 0.01 0.01 0.02
0.10 0.11 0.09 0.08 0.07 0.06 0.05 0.05 0.04 0.03 0.03 0.02 0.02 0.02 0.02 0.01 0.01 0.01 0.01 0.01 0.00 0.00 0.00 0.00 0.00 0.00 0.00 0.00 0.00 0.00 0.00 0.01 0.01 0.01 0.01 0.01 0.01 0.01 0.01 0.01 0.01 0.01 0.01
0.10 0.13 0.14 0.13 0.10 0.09 0.08 0.06 0.05 0.04 0.03 0.03 0.03 0.02 0.02 0.02 0.02 0.01 0.01 0.01 0.01 0.01 0.01 0.00 0.00 0.00 0.00 0.00 0.00 0.01 0.01 0.01 0.02 0.02 0.02 0.02 0.01 0.01 0.02 0.02 0.02 0.02 0.02
0.04 0.05 0.06 0.06 0.06 0.05 0.04 0.04 0.04 0.03 0.04 0.04 0.03 0.03 0.03 0.02 0.02 0.01 0.01 0.01 0.01 0.01 0.01 0.01 0.01 0.01 0.01 0.01 0.01 0.02 0.02 0.02 0.03 0.03 0.03 0.03 0.03 0.03 0.03 0.04 0.04 0.04 0.03
0.02 0.03 0.04 0.06 0.06 0.05 0.04 0.03 0.02 0.02 0.02 0.02 0.02 0.02 0.02 0.02 0.02 0.02 0.02 0.01 0.01 0.01 0.01 0.01 0.01 0.01 0.01 0.01 0.02 0.02 0.03 0.03 0.03 0.03 0.03 0.03 0.04 0.04 0.05 0.05 0.05 0.05 0.05
0.02 0.02 0.03 0.03 0.04 0.04 0.04 0.03 0.02 0.02 0.02 0.02 0.02 0.02 0.02 0.02 0.02 0.03 0.02 0.02 0.02 0.02 0.02 0.02 0.01 0.01 0.02 0.03 0.03 0.04 0.04 0.03 0.03 0.03 0.02 0.02 0.03 0.04 0.04 0.04 0.03 0.03 0.03
MSLP
1015.64 1015.82 1016.07 1016.34 1016.60 1016.79 1016.91 1016.96 1016.94 1016.89 1016.83 1016.78 1016.75 1016.73 1016.72 1016.71 1016.68 1016.63 1016.55 1016.46 1016.35 1016.23 1016.11 1016.00 1015.88 1015.78 1015.70 1015.66 1015.68 1015.77 1015.96 1016.27 1016.68 1017.18 1017.73 1018.29 1018.79 1019.21 1019.48 1019.61 1019.58 1019.42 1019.15
1015.59 1015.78 1016.03 1016.30 1016.56 1016.76 1016.89 1016.96 1016.97 1016.94 1016.90 1016.85 1016.82 1016.80 1016.78 1016.77 1016.75 1016.73 1016.69 1016.64 1016.58 1016.50 1016.40 1016.29 1016.16 1016.02 1015.90 1015.80 1015.77 1015.82 1015.99 1016.29 1016.71 1017.24 1017.83 1018.43 1018.98 1019.44 1019.77 1019.96 1019.99 1019.89 1019.69
1015.61 1015.80 1016.05 1016.31 1016.55 1016.74 1016.88 1016.96 1016.98 1016.97 1016.94 1016.91 1016.87 1016.84 1016.82 1016.80 1016.79 1016.79 1016.78 1016.77 1016.75 1016.71 1016.65 1016.56 1016.44 1016.29 1016.14 1016.01 1015.94 1015.95 1016.07 1016.33 1016.72 1017.23 1017.81 1018.42 1018.99 1019.49 1019.87 1020.12 1020.24 1020.24 1020.15
1015.67 1015.87 1016.10 1016.33 1016.54 1016.71 1016.84 1016.92 1016.96 1016.97 1016.96 1016.94 1016.92 1016.89 1016.86 1016.84 1016.83 1016.82 1016.83 1016.85 1016.86 1016.87 1016.85 1016.79 1016.70 1016.56 1016.41 1016.25 1016.14 1016.10 1016.17 1016.36 1016.69 1017.14 1017.68 1018.26 1018.83 1019.35 1019.79 1020.11 1020.33 1020.45 1020.50
1015.77 1015.97 1016.16 1016.35 1016.51 1016.64 1016.75 1016.83 1016.88 1016.93 1016.95 1016.96 1016.96 1016.95 1016.92 1016.90 1016.87 1016.86 1016.87 1016.90 1016.93 1016.97 1016.98 1016.96 1016.90 1016.79 1016.64 1016.48 1016.33 1016.25 1016.25 1016.37 1016.62 1016.99 1017.46 1017.99 1018.53 1019.06 1019.53 1019.94 1020.26 1020.51 1020.71
1015.92 1016.08 1016.22 1016.33 1016.43 1016.51 1016.59 1016.67 1016.75 1016.83 1016.90 1016.96 1016.99 1017.00 1016.99 1016.96 1016.92 1016.90 1016.90 1016.92 1016.96 1017.01 1017.05 1017.06 1017.03 1016.95 1016.82 1016.66 1016.50 1016.38 1016.32 1016.37 1016.53 1016.80 1017.19 1017.65 1018.16 1018.67 1019.17 1019.64 1020.06 1020.43 1020.77
1016.13 1016.22 1016.27 1016.31 1016.32 1016.34 1016.39 1016.46 1016.55 1016.67 1016.79 1016.90 1016.98 1017.02 1017.03 1017.00 1016.95 1016.91 1016.88 1016.89 1016.92 1016.98 1017.04 1017.08 1017.08 1017.04 1016.94 1016.79 1016.63 1016.48 1016.38 1016.36 1016.44 1016.63 1016.93 1017.32 1017.77 1018.27 1018.77 1019.28 1019.77 1020.24 1020.68
1016.42 1016.42 1016.37 1016.30 1016.22 1016.17 1016.17 1016.22 1016.32 1016.47 1016.63 1016.79 1016.91 1016.98 1017.00 1016.97 1016.91 1016.84 1016.80 1016.78 1016.80 1016.86 1016.93 1017.00 1017.04 1017.03 1016.97 1016.86 1016.72 1016.56 1016.44 1016.38 1016.40 1016.52 1016.74 1017.06 1017.46 1017.91 1018.41 1018.92 1019.45 1019.97 1020.48
1016.80 1016.70 1016.54 1016.36 1016.19 1016.05 1015.99 1016.01 1016.10 1016.25 1016.43 1016.61 1016.75 1016.83 1016.85 1016.82 1016.75 1016.66 1016.59 1016.56 1016.58 1016.64 1016.73 1016.82 1016.91 1016.95 1016.94 1016.87 1016.76 1016.64 1016.52 1016.44 1016.43 1016.50 1016.66 1016.92 1017.25 1017.66 1018.12 1018.61 1019.13 1019.66 1020.20
1017.29 1017.08 1016.82 1016.53 1016.26 1016.05 1015.92 1015.88 1015.94 1016.06 1016.22 1016.38 1016.51 1016.58 1016.59 1016.53 1016.44 1016.34 1016.26 1016.22 1016.23 1016.30 1016.42 1016.55 1016.68 1016.78 1016.83 1016.83 1016.78 1016.69 1016.60 1016.53 1016.51 1016.56 1016.68 1016.88 1017.16 1017.51 1017.92 1018.36 1018.84 1019.34 1019.86
1017.87 1017.57 1017.22 1016.84 1016.48 1016.19 1015.99 1015.88 1015.87 1015.93 1016.03 1016.14 1016.21 1016.24 1016.20 1016.12 1016.00 1015.88 1015.79 1015.76 1015.78 1015.88 1016.03 1016.20 1016.39 1016.54 1016.66 1016.72 1016.73 1016.70 1016.66 1016.62 1016.61 1016.65 1016.75 1016.92 1017.15 1017.44 1017.78 1018.16 1018.57 1019.01 1019.47
1018.49 1018.13 1017.71 1017.27 1016.85 1016.48 1016.20 1016.02 1015.92 1015.89 1015.89 1015.90 1015.89 1015.84 1015.74 1015.61 1015.46 1015.33 1015.24 1015.22 1015.26 1015.39 1015.57 1015.79 1016.02 1016.23 1016.41 1016.53 1016.60 1016.63 1016.64 1016.64 1016.66 1016.71 1016.81 1016.95 1017.14 1017.38 1017.65 1017.95 1018.29 1018.65 1019.04
1019.09 1018.69 1018.24 1017.77 1017.31 1016.90 1016.55 1016.28 1016.08 1015.94 1015.82 1015.71 1015.59 1015.44 1015.26 1015.08 1014.89 1014.75 1014.66 1014.65 1014.72 1014.87 1015.08 1015.34 1015.60 1015.85 1016.06 1016.22 1016.34 1016.42 1016.47 1016.51 1016.56 1016.64 1016.74 1016.87 1017.04 1017.24 1017.45 1017.69 1017.95 1018.24 1018.55
1019.61 1019.21 1018.76 1018.28 1017.81 1017.36 1016.96 1016.62 1016.32 1016.06 1015.83 1015.59 1015.34 1015.09 1014.83 1014.57 1014.36 1014.19 1014.10 1014.10 1014.19 1014.35 1014.58 1014.84 1015.11 1015.37 1015.59 1015.77 1015.90 1016.01 1016.09 1016.16 1016.24 1016.34 1016.47 1016.61 1016.77 1016.94 1017.13 1017.32 1017.52 1017.74 1017.99
1019.99 1019.61 1019.18 1018.72 1018.26 1017.81 1017.38 1016.98 1016.60 1016.24 1015.89 1015.53 1015.17 1014.81 1014.47 1014.16 1013.90 1013.71 1013.61 1013.61 1013.69 1013.85 1014.06 1014.30 1014.54 1014.77 1014.97 1015.13 1015.25 1015.36 1015.45 1015.54 1015.65 1015.77 1015.92 1016.09 1016.26 1016.44 1016.61 1016.79 1016.96 1017.15 1017.35
1020.21 1019.86 1019.46 1019.04 1018.61 1018.17 1017.74 1017.30 1016.87 1016.43 1015.98 1015.53 1015.08 1014.63 1014.22 1013.85 1013.55 1013.33 1013.21 1013.18 1013.23 1013.34 1013.51 1013.69 1013.87 1014.03 1014.16 1014.27 1014.36 1014.44 1014.53 1014.63 1014.75 1014.91 1015.09 1015.29 1015.49 1015.70 1015.89 1016.08 1016.26 1016.44 1016.62
1020.31 1019.97 1019.60 1019.22 1018.83 1018.42 1018.00 1017.55 1017.09 1016.60 1016.09 1015.57 1015.04 1014.53 1014.06 1013.64 1013.29 1013.03 1012.86 1012.78 1012.76 1012.81 1012.88 1012.97 1013.06 1013.13 1013.18 1013.21 1013.25 1013.29 1013.36 1013.46 1013.60 1013.78 1014.00 1014.24 1014.49 1014.74 1014.98 1015.21 1015.41 1015.61 1015.82
1020.33 1019.99 1019.65 1019.31 1018.95 1018.57 1018.16 1017.72 1017.25 1016.74 1016.19 1015.62 1015.05 1014.49 1013.96 1013.49 1013.09 1012.77 1012.53 1012.36 1012.26 1012.20 1012.16 1012.14 1012.11 1012.07 1012.02 1011.98 1011.95 1011.95 1012.00 1012.10 1012.26 1012.47 1012.73 1013.02 1013.32 1013.63 1013.92 1014.20 1014.46 1014.70 1014.94
1020.36 1020.01 1019.68 1019.35 1019.02 1018.66 1018.27 1017.85 1017.37 1016.85 1016.29 1015.69 1015.08 1014.48 1013.91 1013.38 1012.91 1012.51 1012.17 1011.90 1011.68 1011.50 1011.34 1011.19 1011.04 1010.89 1010.75 1010.63 1010.55 1010.52 1010.55 1010.66 1010.83 1011.08 1011.37 1011.71 1012.06 1012.42 1012.77 1013.11 1013.42 1013.72 1014.01
1020.47 1020.11 1019.77 1019.44 1019.11 1018.77 1018.39 1017.97 1017.50 1016.97 1016.40 1015.78 1015.13 1014.49 1013.86 1013.26 1012.71 1012.21 1011.77 1011.38 1011.04 1010.73 1010.44 1010.16 1009.90 1009.66 1009.45 1009.28 1009.16 1009.11 1009.15 1009.26 1009.46 1009.72 1010.05 1010.42 1010.81 1011.21 1011.61 1011.99 1012.35 1012.71 1013.05
1020.73 1020.34 1019.98 1019.65 1019.31 1018.97 1018.59 1018.16 1017.68 1017.14 1016.54 1015.90 1015.21 1014.52 1013.82 1013.14 1012.50 1011.90 1011.34 1010.83 1010.36 1009.93 1009.52 1009.14 1008.80 1008.49 1008.24 1008.04 1007.91 1007.87 1007.91 1008.04 1008.25 1008.54 1008.88 1009.26 1009.67 1010.08 1010.50 1010.91 1011.31 1011.70 1012.09
1021.14 1020.73 1020.36 1020.01 1019.66 1019.29 1018.90 1018.45 1017.95 1017.38 1016.75 1016.06 1015.33 1014.58 1013.81 1013.05 1012.31 1011.60 1010.94 1010.31 1009.73 1009.20 1008.70 1008.26 1007.86 1007.52 1007.25 1007.05 1006.94 1006.91 1006.97 1007.12 1007.34 1007.62 1007.96 1008.32 1008.72 1009.12 1009.53 1009.94 1010.35 1010.77 1011.18
1021.68 1021.27 1020.88 1020.51 1020.15 1019.76 1019.34 1018.86 1018.32 1017.72 1017.04 1016.30 1015.52 1014.70 1013.86 1013.02 1012.20 1011.40 1010.64 1009.93 1009.27 1008.66 1008.12 1007.64 1007.22 1006.88 1006.63 1006.45 1006.37 1006.36 1006.44 1006.59 1006.80 1007.07 1007.37 1007.70 1008.05 1008.41 1008.78 1009.16 1009.55 1009.96 1010.39
1022.27 1021.87 1021.50 1021.12 1020.74 1020.33 1019.87 1019.36 1018.78 1018.13 1017.41 1016.62 1015.78 1014.91 1014.01 1013.11 1012.22 1011.36 1010.55 1009.78 1009.08 1008.44 1007.88 1007.40 1007.00 1006.69 1006.46 1006.32 1006.26 1006.28 1006.37 1006.51 1006.69 1006.91 1007.16 1007.42 1007.70 1007.99 1008.29 1008.62 1008.97 1009.35 1009.76
1022.82 1022.47 1022.11 1021.75 1021.36 1020.93 1020.45 1019.90 1019.29 1018.60 1017.84 1017.02 1016.14 1015.23 1014.30 1013.36 1012.45 1011.56 1010.73 1009.95 1009.25 1008.62 1008.07 1007.62 1007.25 1006.98 1006.79 1006.68 1006.64 1006.67 1006.74 1006.86 1006.99 1007.15 1007.32 1007.50 1007.68 1007.88 1008.10 1008.36 1008.65 1008.98 1009.36
1023.27 1022.97 1022.65 1022.31 1021.93 1021.50 1021.00 1020.44 1019.80 1019.09 1018.31 1017.47 1016.58 1015.66 1014.73 1013.81 1012.90 1012.04 1011.22 1010.47 1009.80 1009.21 1008.71 1008.30 1007.97 1007.73 1007.57 1007.49 1007.45 1007.47 1007.51 1007.58 1007.65 1007.72 1007.80 1007.88 1007.97 1008.07 1008.21 1008.38 1008.60 1008.87 1009.20
Thickness
5787 5783 5779 5775 5772 5769 5766 5763 5760 5758 5756 5754 5752 5750 5748 5746 5745 5743 5740 5739 5736 5734 5733 5731 5729 5728 5726 5724 5723 5720 5717 5712 5703 5697 5695 5692 5690 5687 5684 5683 5681 5678 5675
5786 5781 5777 5773 5770 5766 5763 5761 5758 5755 5753 5751 5749 5746 5744 5742 5740 5738 5735 5733 5730 5728 5726 5725 5723 5723 5720 5719 5717 5714 5710 5707 5701 5692 5687 5684 5682 5680 5677 5674 5671 5669 5666
5785 5779 5774 5770 5767 5763 5761 5758 5755 5752 5749 5747 5745 5742 5739 5737 5735 5733 5730 5727 5725 5723 5721 5719 5717 5716 5713 5712 5710 5707 5704 5701 5696 5689 5682 5678 5675 5672 5668 5665 5662 5659 5656
5782 5777 5772 5768 5765 5761 5758 5755 5752 5748 5745 5742 5740 5737 5735 5732 5730 5728 5725 5722 5719 5718 5716 5714 5712 5711 5708 5706 5704 5700 5697 5692 5688 5682 5676 5671 5667 5664 5661 5656 5652 5649 5646
5780 5774 5770 5766 5763 5759 5755 5751 5748 5745 5741 5738 5735 5732 5730 5728 5725 5723 5720 5717 5713 5711 5710 5708 5707 5705 5704 5701 5698 5694 5691 5685 5680 5675 5669 5665 5660 5656 5652 5649 5644 5639 5636
5777 5772 5768 5764 5760 5755 5751 5747 5743 5739 5736 5733 5729 5727 5725 5723 5720 5718 5715 5711 5708 5705 5703 5701 5700 5698 5696 5695 5692 5689 5686 5681 5675 5669 5663 5658 5654 5650 5646 5642 5636 5631 5626
5775 5770 5766 5762 5757 5752 5748 5743 5739 5734 5730 5727 5724 5721 5718 5716 5715 5713 5710 5706 5702 5699 5697 5694 5693 5691 5689 5687 5684 5682 5678 5675 5672 5666 5659 5654 5649 5645 5641 5635 5630 5625 5621
5771 5767 5763 5759 5754 5749 5744 5738 5734 5730 5726 5722 5719 5715 5713 5711 5709 5707 5703 5699 5696 5692 5690 5687 5685 5682 5681 5679 5676 5672 5668 5665 5662 5659 5655 5650 5646 5642 5637 5632 5625 5619 5614
5767 5763 5760 5756 5751 5745 5740 5735 5730 5726 5721 5717 5713 5710 5707 5704 5703 5701 5697 5693 5688 5685 5682 5680 5678 5675 5673 5671 5667 5662 5658 5655 5653 5650 5647 5643 5639 5635 5631 5625 5618 5612 5604
5764 5760 5757 5753 5748 5742 5736 5731 5726 5722 5717 5712 5708 5704 5702 5698 5696 5694 5691 5686 5681 5677 5674 5672 5670 5667 5665 5663 5659 5654 5649 5645 5643 5640 5637 5634 5631 5627 5623 5619 5613 5606 5598
5761 5757 5753 5749 5744 5738 5733 5727 5722 5717 5711 5707 5702 5698 5695 5693 5690 5687 5684 5680 5675 5671 5667 5663 5661 5660 5657 5654 5651 5647 5643 5639 5635 5631 5627 5624 5621 5618 5615 5612 5608 5603 5595
5755 5751 5747 5743 5739 5734 5727 5721 5716 5711 5705 5700 5695 5691 5688 5686 5683 5680 5677 5674 5670 5665 5660 5657 5654 5652 5649 5646 5642 5639 5635 5632 5627 5622 5618 5614 5611 5608 5606 5603 5600 5597 5592
5748 5744 5739 5736 5731 5727 5721 5715 5710 5705 5700 5694 5689 5684 5681 5678 5676 5673 5670 5666 5662 5658 5654 5651 5648 5644 5641 5637 5634 5631 5627 5622 5617 5613 5608 5605 5603 5601 5598 5595 5591 5588 5584
5742 5737 5732 5728 5723 5719 5715 5710 5705 5700 5694 5689 5683 5678 5674 5671 5668 5665 5661 5657 5654 5650 5646 5643 5640 5636 5633 5629 5626 5622 5618 5614 5609 5605 5601 5599 5596 5593 5589 5586 5581 5577 5572
5734 5730 5725 5720 5715 5710 5706 5701 5698 5695 5692 5687 5682 5677 5670 5665 5663 5660 5656 5651 5647 5643 5638 5634 5630 5626 5622 5619 5616 5613 5610 5606 5602 5599 5595 5591 5588 5584 5581 5578 5573 5568 5563
5727 5722 5718 5712 5707 5702 5697 5691 5689 5687 5685 5682 5679 5674 5669 5664 5659 5653 5650 5646 5641 5637 5632 5626 5622 5618 5614 5611 5607 5604 5601 5598 5595 5592 5588 5584 5581 5577 5573 5569 5565 5561 5556
5721 5716 5711 5706 5701 5695 5690 5686 5680 5676 5675 5673 5670 5667 5663 5658 5653 5648 5643 5639 5634 5630 5624 5619 5615 5611 5608 5605 5601 5597 5594 5591 5588 5585 5582 5578 5574 5570 5566 5562 5558 5553 5549
5715 5711 5706 5701 5696 5690 5685 5681 5676 5671 5666 5662 5660 5658 5655 5650 5646 5641 5636 5631 5625 5621 5618 5614 5610 5606 5603 5599 5595 5592 5588 5585 5582 5578 5575 5571 5568 5564 5560 5555 5551 5547 5543
5707 5703 5699 5695 5690 5685 5680 5675 5671 5666 5662 5656 5652 5648 5646 5642 5637 5633 5629 5625 5620 5616 5612 5608 5605 5601 5598 5594 5590 5587 5583 5579 5575 5572 5568 5565 5561 5557 5553 5549 5545 5542 5538
5700 5697 5693 5688 5683 5679 5674 5669 5664 5659 5655 5651 5647 5643 5638 5633 5629 5625 5622 5619 5615 5611 5607 5604 5600 5597 5593 5589 5585 5581 5577 5573 5569 5565 5562 5558 5555 5551 5547 5543 5539 5535 5532
5692 5688 5685 5680 5676 5672 5668 5664 5659 5654 5649 5645 5642 5639 5634 5630 5626 5621 5617 5613 5610 5606 5603 5600 5596 5592 5588 5584 5580 5575 5571 5566 5562 5558 5555 5551 5548 5544 5541 5537 5534 5530 5526
5685 5681 5677 5672 5668 5666 5662 5658 5654 5649 5645 5640 5636 5632 5627 5624 5620 5616 5612 5609 5606 5603 5599 5595 5591 5587 5584 5579 5574 5569 5564 5559 5555 5552 5548 5545 5541 5538 5534 5530 5527 5523 5519
5678 5674 5670 5666 5662 5659 5655 5651 5648 5644 5640 5635 5631 5627 5622 5618 5615 5611 5608 5605 5601 5598 5594 5590 5586 5582 5578 5574 5569 5564 5559 5554 5550 5546 5542 5538 5534 5530 5527 5524 5520 5517 5513
5670 5667 5663 5659 5655 5651 5648 5644 5641 5638 5634 5630 5626 5622 5618 5614 5610 5607 5604 5600 5596 5592 5589 5585 5581 5576 5572 5567 5562 5558 5554 5550 5545 5541 5537 5533 5528 5524 5520 5517 5514 5511 5507
5661 5659 5655 5652 5648 5644 5641 5638 5635 5632 5628 5625 5621 5617 5613 5609 5606 5602 5598 5594 5590 5586 5582 5578 5574 5569 5565 5560 5556 5551 5547 5543 5539 5535 5531 5527 5522 5518 5514 5510 5507 5503 5499
5653 5651 5647 5644 5640 5637 5634 5631 5628 5625 5622 5619 5615 5612 5608 5605 5601 5597 5592 5588 5584 5579 5575 5571 5567 5562 5557 5553 5548 5544 5540 5535 5531 5527 5523 5519 5515 5510 5507 5502 5500 5496 5493